Location: Martley
(52.2333°N, 2.3667°W)
Time: 21:06:23
(UTC+00:00)

Cosmos 1741 Rocket - Pass Details

Date: 11 December 2019
Orbit: 762 x 782 km, 74.0° (Epoch: 25 January)

Event Time Altitude Azimuth Distance (km) Brightness Sun altitude
Exits shadow 05:39:29 40° 321° (NW) 1,128 4.5 -21.4°
Maximum altitude 05:41:22 71° 249° (WSW) 808 3.9 -21.1°
Drops below altitude 10° 05:46:33 10° 166° (SSE) 2,295 6.8 -20.3°
Sets 05:48:55 0° 164° (SSE) 3,218 7.6 -20.0°
